Location: La Bastide
(43.1661°N, 1.2755°E)
Time: 22:54:02
(UTC+00:00)

COSMO-SKYMED 1 - Visible Passes

Search period start: 13 March 2026 00:00
Search period end: 23 March 2026 00:00
Orbit: 576 x 579 km, 97.9° (Epoch: 13 March)

Date Brightness Start Highest point End Pass type
(mag) Time Alt. Az. Time Alt. Az. Time Alt. Az.
13 Mar 3.5 05:07:42 10° SSE 05:11:39 48° ENE 05:15:37 10° N visible
13 Mar 2.4 18:22:22 10° NNE 18:26:28 74° E 18:30:34 10° S visible
13 Mar 5.9 20:00:02 10° NW 20:01:08 11° WNW 20:02:13 10° WNW visible
14 Mar 3.3 05:11:47 10° SSE 05:15:46 54° ENE 05:19:48 10° N visible
14 Mar 2.4 18:26:30 10° NNE 18:30:37 82° E 18:34:43 10° S visible
15 Mar 3.1 05:15:53 10° SSE 05:19:54 60° ENE 05:23:58 10° N visible
15 Mar 2.5 18:30:38 10° NNE 18:34:45 89° WNW 18:38:51 10° SSW visible
16 Mar 2.9 05:19:57 10° SSE 05:24:01 67° ENE 05:28:06 10° N visible
16 Mar 2.6 18:34:45 10° N 18:38:52 81° WNW 18:42:58 10° SSW visible
17 Mar 2.7 05:24:03 10° SSE 05:28:08 75° ENE 05:32:14 10° N visible
17 Mar 2.7 18:38:52 10° N 18:42:58 73° WNW 18:47:03 10° SSW visible
18 Mar 2.5 05:28:08 10° SSE 05:32:14 83° ENE 05:36:21 10° NNW visible
18 Mar 2.9 18:42:59 10° N 18:47:04 65° WNW 18:51:07 10° SSW visible
19 Mar 3.2 18:47:06 10° N 18:51:09 58° WNW 18:55:10 10° SSW visible
20 Mar 6.1 04:05:23 10° ENE 04:05:48 10° ENE 04:06:14 10° NE visible
20 Mar 3.4 18:51:13 10° N 18:55:14 52° WNW 18:59:12 10° SSW visible
21 Mar 6.0 04:08:35 10° E 04:09:50 11° ENE 04:11:05 10° NE visible
21 Mar 3.6 18:55:20 10° N 18:59:17 47° WNW 19:03:13 10° SW visible
22 Mar 5.9 04:12:10 10° E 04:13:51 12° ENE 04:15:32 10° NE visible
22 Mar 3.8 18:59:26 10° N 19:03:19 42° WNW 19:07:12 10° SW visible
